ARG4522 SPJC-SCFA

Flight info

Callsign ARG4522
Flight time 1h 53m
Altitude 35000
Route SCO UL550 XONOG UQ803 ENLUS ENLUS5A
Aircraft B738/M-SDE2E3FGHIRWXY/LB1

Departure

Time 2026-04-29 11:42
Airport Jorge Chávez International Airport (SPJC)

Arrival

Time 2026-04-29 13:36
Airport Andrés Sabella Gálvez International Airport (SCFA)
Time Latitude Longitude Altitude Speed Heading
2026-04-29 11:33 -12.02266 -77.10990 88 ft 0 kts 61°
2026-04-29 11:36 -12.02272 -77.11000 92 ft 4 kts 59°
2026-04-29 11:36 -12.02286 -77.11023 89 ft 4 kts 53°
2026-04-29 11:36 -12.02304 -77.11044 90 ft 4 kts 38°
2026-04-29 11:36 -12.02326 -77.11054 88 ft 4 kts 351°
2026-04-29 11:37 -12.02333 -77.11053 88 ft 1 kts 333°
2026-04-29 11:38 -12.02331 -77.11054 88 ft 2 kts 332°
2026-04-29 11:38 -12.02338 -77.11095 88 ft 10 kts 244°
2026-04-29 11:38 -12.02292 -77.11170 91 ft 19 kts 335°
2026-04-29 11:39 -12.02151 -77.11240 88 ft 23 kts 334°
2026-04-29 11:39 -12.02008 -77.11309 83 ft 22 kts 334°
2026-04-29 11:39 -12.01870 -77.11377 76 ft 22 kts 334°
2026-04-29 11:39 -12.01727 -77.11448 71 ft 24 kts 334°
2026-04-29 11:40 -12.01565 -77.11527 68 ft 28 kts 334°
2026-04-29 11:40 -12.01387 -77.11615 62 ft 29 kts 334°
2026-04-29 11:40 -12.01210 -77.11701 63 ft 28 kts 334°
2026-04-29 11:40 -12.01032 -77.11789 59 ft 28 kts 334°
2026-04-29 11:41 -12.00864 -77.11871 55 ft 26 kts 334°
2026-04-29 11:41 -12.00710 -77.11951 49 ft 24 kts 323°
2026-04-29 11:41 -12.00728 -77.12094 52 ft 23 kts 220°
2026-04-29 11:41 -12.00865 -77.12079 53 ft 29 kts 154°
2026-04-29 11:42 -12.01300 -77.11866 64 ft 109 kts 154°
2026-04-29 11:42 -12.02193 -77.11425 121 ft 172 kts 155°
2026-04-29 11:42 -12.03394 -77.10844 564 ft 206 kts 156°
2026-04-29 11:42 -12.04767 -77.10211 1162 ft 226 kts 156°
2026-04-29 11:43 -12.06228 -77.09517 1948 ft 235 kts 154°
2026-04-29 11:43 -12.07744 -77.08747 2566 ft 251 kts 153°
2026-04-29 11:43 -12.09329 -77.07939 3326 ft 257 kts 153°
2026-04-29 11:43 -12.10949 -77.07124 4127 ft 262 kts 153°
2026-04-29 11:44 -12.12600 -77.06306 4924 ft 266 kts 157°
2026-04-29 11:44 -12.14422 -77.05980 5646 ft 271 kts 187°
2026-04-29 11:44 -12.16174 -77.06651 6405 ft 272 kts 216°
2026-04-29 11:44 -12.17606 -77.07923 7135 ft 275 kts 225°
2026-04-29 11:45 -12.18958 -77.09319 7845 ft 278 kts 227°
2026-04-29 11:45 -12.20310 -77.10739 8584 ft 280 kts 227°
2026-04-29 11:45 -12.21682 -77.12169 9323 ft 283 kts 226°
2026-04-29 11:45 -12.23074 -77.13603 10029 ft 286 kts 226°
2026-04-29 11:46 -12.24487 -77.15046 10676 ft 289 kts 226°
2026-04-29 11:46 -12.25928 -77.16511 11278 ft 296 kts 225°
2026-04-29 11:46 -12.27441 -77.18046 11466 ft 318 kts 223°
2026-04-29 11:46 -12.29342 -77.19317 11599 ft 339 kts 199°
2026-04-29 11:47 -12.31725 -77.19635 11750 ft 358 kts 173°
2026-04-29 11:47 -12.34223 -77.19184 12057 ft 369 kts 168°
2026-04-29 11:47 -12.36753 -77.18618 12576 ft 374 kts 167°
2026-04-29 11:47 -12.39291 -77.18031 13221 ft 375 kts 166°
2026-04-29 11:48 -12.41808 -77.17454 13835 ft 376 kts 166°
2026-04-29 11:48 -12.44377 -77.16875 14333 ft 379 kts 166°
2026-04-29 11:48 -12.46971 -77.16301 14833 ft 382 kts 167°
2026-04-29 11:48 -12.49578 -77.15732 15348 ft 385 kts 167°
2026-04-29 11:49 -12.52206 -77.15163 15856 ft 387 kts 167°
2026-04-29 11:49 -12.54852 -77.14593 16333 ft 390 kts 167°
2026-04-29 11:49 -12.57516 -77.14020 16833 ft 393 kts 167°
2026-04-29 11:49 -12.60203 -77.13442 17318 ft 396 kts 167°
2026-04-29 11:50 -12.62904 -77.12861 17802 ft 398 kts 167°
2026-04-29 11:50 -12.65630 -77.12275 18254 ft 401 kts 167°
2026-04-29 11:50 -12.68373 -77.11685 18653 ft 404 kts 167°
2026-04-29 11:50 -12.71128 -77.11092 19067 ft 406 kts 167°
2026-04-29 11:51 -12.73899 -77.10496 19508 ft 407 kts 167°
2026-04-29 11:51 -12.76644 -77.09905 19928 ft 409 kts 167°
2026-04-29 11:51 -12.79432 -77.09304 20342 ft 410 kts 167°
2026-04-29 11:51 -12.82232 -77.08701 20753 ft 412 kts 167°
2026-04-29 11:52 -12.85046 -77.08095 21155 ft 414 kts 167°
2026-04-29 11:52 -12.87867 -77.07487 21555 ft 415 kts 167°
2026-04-29 11:52 -12.90702 -77.06876 21954 ft 417 kts 167°
2026-04-29 11:52 -12.93548 -77.06262 22343 ft 419 kts 167°
2026-04-29 11:53 -12.96407 -77.05645 22723 ft 421 kts 167°
2026-04-29 11:53 -12.99282 -77.05025 23088 ft 423 kts 167°
2026-04-29 11:53 -13.02169 -77.04402 23428 ft 425 kts 167°
2026-04-29 11:53 -13.05054 -77.03736 23739 ft 427 kts 162°
2026-04-29 11:54 -13.07743 -77.02431 23972 ft 430 kts 146°
2026-04-29 11:54 -13.09987 -77.00389 24191 ft 434 kts 132°
2026-04-29 11:54 -13.11949 -76.98021 24434 ft 437 kts 130°
2026-04-29 11:54 -13.13883 -76.95596 24641 ft 441 kts 129°
2026-04-29 11:55 -13.15823 -76.93140 24857 ft 445 kts 129°
2026-04-29 11:55 -13.17785 -76.90665 25093 ft 448 kts 130°
2026-04-29 11:55 -13.19768 -76.88185 25315 ft 451 kts 130°
2026-04-29 11:55 -13.21774 -76.85694 25534 ft 454 kts 130°
2026-04-29 11:56 -13.23798 -76.83194 25759 ft 457 kts 130°
2026-04-29 11:56 -13.25844 -76.80674 25962 ft 461 kts 130°
2026-04-29 11:56 -13.27875 -76.78174 26183 ft 463 kts 130°
2026-04-29 11:56 -13.29944 -76.75627 26415 ft 466 kts 130°
2026-04-29 11:57 -13.32022 -76.73068 26659 ft 468 kts 130°
2026-04-29 11:57 -13.34111 -76.70495 26898 ft 470 kts 130°
2026-04-29 11:57 -13.36208 -76.67910 27134 ft 472 kts 130°
2026-04-29 11:57 -13.38313 -76.65313 27359 ft 474 kts 130°
2026-04-29 11:58 -13.40433 -76.62698 27565 ft 477 kts 130°
2026-04-29 11:58 -13.42559 -76.60075 27772 ft 480 kts 130°
2026-04-29 11:58 -13.44701 -76.57431 27970 ft 482 kts 130°
2026-04-29 11:58 -13.46852 -76.54775 28172 ft 484 kts 130°
2026-04-29 11:59 -13.49013 -76.52106 28369 ft 487 kts 130°
2026-04-29 11:59 -13.51189 -76.49416 28558 ft 489 kts 130°
2026-04-29 11:59 -13.53369 -76.46722 28753 ft 491 kts 130°
2026-04-29 11:59 -13.55560 -76.44013 28962 ft 493 kts 130°
2026-04-29 12:00 -13.57751 -76.41304 29236 ft 493 kts 130°
2026-04-29 12:00 -13.59943 -76.38591 29517 ft 493 kts 130°
2026-04-29 12:00 -13.62137 -76.35876 29780 ft 494 kts 129°
2026-04-29 12:00 -13.64306 -76.33191 30014 ft 495 kts 129°
2026-04-29 12:01 -13.66508 -76.30463 30252 ft 496 kts 129°
2026-04-29 12:01 -13.68710 -76.27736 30513 ft 495 kts 129°
2026-04-29 12:01 -13.70906 -76.25014 30787 ft 495 kts 130°
2026-04-29 12:01 -13.73105 -76.22290 31042 ft 495 kts 130°
2026-04-29 12:02 -13.75507 -76.19761 31239 ft 495 kts 140°
2026-04-29 12:02 -13.78186 -76.17553 31527 ft 493 kts 143°
2026-04-29 12:02 -13.80935 -76.15442 31820 ft 492 kts 144°
2026-04-29 12:02 -13.83705 -76.13361 32079 ft 493 kts 144°
2026-04-29 12:03 -13.86474 -76.11275 32324 ft 493 kts 144°
2026-04-29 12:03 -13.89229 -76.09170 32600 ft 493 kts 144°
2026-04-29 12:03 -13.91969 -76.07048 32929 ft 493 kts 144°
2026-04-29 12:03 -13.94689 -76.04917 33235 ft 491 kts 144°
2026-04-29 12:04 -13.97398 -76.02781 33563 ft 490 kts 144°
2026-04-29 12:04 -14.00097 -76.00644 33831 ft 490 kts 144°
2026-04-29 12:04 -14.02802 -75.98501 34065 ft 490 kts 144°
2026-04-29 12:04 -14.05501 -75.96363 34272 ft 490 kts 143°
2026-04-29 12:05 -14.08206 -75.94219 34485 ft 490 kts 143°
2026-04-29 12:05 -14.10907 -75.92081 34688 ft 490 kts 143°
2026-04-29 12:05 -14.13615 -75.89936 34881 ft 491 kts 143°
2026-04-29 12:05 -14.16327 -75.87789 35006 ft 493 kts 143°
2026-04-29 12:06 -14.21802 -75.83453 35012 ft 498 kts 143°
2026-04-29 12:06 -14.27285 -75.79107 35004 ft 496 kts 143°
2026-04-29 12:07 -14.32748 -75.74773 35023 ft 494 kts 143°
2026-04-29 12:07 -14.38190 -75.70454 35012 ft 493 kts 143°
2026-04-29 12:08 -14.43578 -75.66175 35037 ft 491 kts 143°
2026-04-29 12:08 -14.48995 -75.61872 35022 ft 491 kts 143°
2026-04-29 12:09 -14.54405 -75.57570 35035 ft 491 kts 143°
2026-04-29 12:09 -14.59820 -75.53261 35044 ft 492 kts 143°
2026-04-29 12:10 -14.65248 -75.48940 35036 ft 493 kts 143°
2026-04-29 12:10 -14.70687 -75.44607 35037 ft 494 kts 143°
2026-04-29 12:11 -14.76140 -75.40260 35026 ft 495 kts 143°
2026-04-29 12:11 -14.81598 -75.35906 35024 ft 496 kts 143°
2026-04-29 12:12 -14.87069 -75.31539 35034 ft 497 kts 143°
2026-04-29 12:12 -14.92543 -75.27167 35037 ft 498 kts 143°
2026-04-29 12:13 -14.98023 -75.22787 35046 ft 498 kts 143°
2026-04-29 12:13 -15.03513 -75.18396 35024 ft 499 kts 143°
2026-04-29 12:14 -15.09006 -75.14000 35036 ft 499 kts 143°
2026-04-29 12:14 -15.14486 -75.09610 35036 ft 498 kts 143°
2026-04-29 12:15 -15.19963 -75.05222 35034 ft 498 kts 143°
2026-04-29 12:15 -15.25445 -75.00826 35035 ft 497 kts 143°
2026-04-29 12:16 -15.30875 -74.96468 35030 ft 497 kts 143°
2026-04-29 12:16 -15.36338 -74.92081 35031 ft 497 kts 143°
2026-04-29 12:17 -15.41795 -74.87695 35036 ft 496 kts 143°
2026-04-29 12:17 -15.47252 -74.83307 35027 ft 496 kts 143°
2026-04-29 12:18 -15.52706 -74.78919 35029 ft 496 kts 143°
2026-04-29 12:18 -15.58160 -74.74527 35019 ft 497 kts 143°
2026-04-29 12:19 -15.63615 -74.70131 35022 ft 497 kts 143°
2026-04-29 12:19 -15.69079 -74.65726 35011 ft 497 kts 143°
2026-04-29 12:20 -15.74542 -74.61318 35009 ft 498 kts 143°
2026-04-29 12:20 -15.80015 -74.56898 35004 ft 498 kts 143°
2026-04-29 12:21 -15.85452 -74.52505 35004 ft 499 kts 143°
2026-04-29 12:21 -15.90928 -74.48077 34998 ft 499 kts 143°
2026-04-29 12:22 -15.96405 -74.43645 34995 ft 499 kts 143°
2026-04-29 12:22 -16.01887 -74.39206 34996 ft 500 kts 143°
2026-04-29 12:23 -16.07367 -74.34765 34994 ft 500 kts 143°
2026-04-29 12:23 -16.12854 -74.30315 34996 ft 500 kts 143°
2026-04-29 12:24 -16.18338 -74.25865 34997 ft 500 kts 143°
2026-04-29 12:24 -16.22934 -74.22132 34999 ft 500 kts 143°
2026-04-29 12:25 -16.28382 -74.17705 34998 ft 500 kts 143°
2026-04-29 12:26 -16.36607 -74.11015 34997 ft 500 kts 143°
2026-04-29 12:26 -16.42095 -74.06547 34998 ft 500 kts 143°
2026-04-29 12:27 -16.47575 -74.02081 35000 ft 500 kts 143°
2026-04-29 12:27 -16.53056 -73.97612 35003 ft 500 kts 143°
2026-04-29 12:28 -16.58540 -73.93138 35001 ft 500 kts 143°
2026-04-29 12:28 -16.64021 -73.88662 34999 ft 500 kts 143°
2026-04-29 12:29 -16.69502 -73.84181 35005 ft 500 kts 143°
2026-04-29 12:29 -16.74981 -73.79698 35002 ft 501 kts 143°
2026-04-29 12:30 -16.80458 -73.75213 35003 ft 501 kts 143°
2026-04-29 12:30 -16.85936 -73.70724 35006 ft 501 kts 143°
2026-04-29 12:31 -16.91415 -73.66230 35008 ft 501 kts 143°
2026-04-29 12:31 -16.96893 -73.61734 35007 ft 501 kts 143°
2026-04-29 12:32 -17.02373 -73.57233 35009 ft 501 kts 143°
2026-04-29 12:32 -17.07851 -73.52730 35006 ft 501 kts 143°
2026-04-29 12:33 -17.13326 -73.48225 35007 ft 501 kts 143°
2026-04-29 12:33 -17.18807 -73.43714 35009 ft 501 kts 143°
2026-04-29 12:34 -17.24285 -73.39200 35009 ft 501 kts 143°
2026-04-29 12:34 -17.29763 -73.34683 35007 ft 502 kts 143°
2026-04-29 12:35 -17.35245 -73.30159 35008 ft 502 kts 143°
2026-04-29 12:35 -17.40725 -73.25633 35009 ft 502 kts 143°
2026-04-29 12:36 -17.46208 -73.21102 35012 ft 502 kts 143°
2026-04-29 12:36 -17.51695 -73.16564 35016 ft 502 kts 143°
2026-04-29 12:37 -17.57178 -73.12024 35016 ft 503 kts 143°
2026-04-29 12:37 -17.62666 -73.07478 35017 ft 503 kts 144°
2026-04-29 12:38 -17.68122 -73.02954 35018 ft 503 kts 144°
2026-04-29 12:38 -17.73613 -72.98397 35018 ft 503 kts 144°
2026-04-29 12:39 -17.79103 -72.93838 35016 ft 503 kts 144°
2026-04-29 12:39 -17.84600 -72.89269 35021 ft 504 kts 144°
2026-04-29 12:40 -17.90092 -72.84701 35020 ft 504 kts 144°
2026-04-29 12:40 -17.95584 -72.80129 35020 ft 504 kts 144°
2026-04-29 12:41 -18.01076 -72.75553 35019 ft 504 kts 144°
2026-04-29 12:41 -18.06575 -72.70968 35020 ft 504 kts 144°
2026-04-29 12:42 -18.12069 -72.66382 35020 ft 504 kts 144°
2026-04-29 12:42 -18.17564 -72.61792 35019 ft 505 kts 144°
2026-04-29 12:43 -18.23057 -72.57200 35022 ft 505 kts 144°
2026-04-29 12:43 -18.28553 -72.52602 35020 ft 505 kts 144°
2026-04-29 12:44 -18.34050 -72.47998 35023 ft 505 kts 144°
2026-04-29 12:44 -18.39510 -72.43427 35022 ft 505 kts 144°
2026-04-29 12:45 -18.45009 -72.38826 35024 ft 505 kts 144°
2026-04-29 12:45 -18.50510 -72.34216 35023 ft 505 kts 144°
2026-04-29 12:46 -18.56011 -72.29601 35020 ft 505 kts 144°
2026-04-29 12:46 -18.61511 -72.24984 35023 ft 505 kts 144°
2026-04-29 12:47 -18.67009 -72.20364 35023 ft 506 kts 144°
2026-04-29 12:47 -18.72511 -72.15736 35021 ft 506 kts 144°
2026-04-29 12:48 -18.78009 -72.11107 35026 ft 506 kts 144°
2026-04-29 12:48 -18.83507 -72.06475 35026 ft 506 kts 144°
2026-04-29 12:49 -18.89007 -72.01838 35024 ft 506 kts 144°
2026-04-29 12:49 -18.94503 -71.97199 35025 ft 506 kts 144°
2026-04-29 12:50 -19.00000 -71.92556 35024 ft 506 kts 144°
2026-04-29 12:50 -19.05494 -71.87911 35028 ft 506 kts 144°
2026-04-29 12:51 -19.10982 -71.83267 35027 ft 506 kts 144°
2026-04-29 12:51 -19.16440 -71.78644 35022 ft 505 kts 144°
2026-04-29 12:52 -19.21923 -71.73997 35027 ft 505 kts 145°
2026-04-29 12:52 -19.27408 -71.69343 35023 ft 505 kts 145°
2026-04-29 12:53 -19.32890 -71.64689 35027 ft 505 kts 145°
2026-04-29 12:53 -19.38367 -71.60033 35025 ft 505 kts 145°
2026-04-29 12:54 -19.43838 -71.55381 36149 ft 501 kts 142°
2026-04-29 12:54 -19.46514 -71.53104 35881 ft 485 kts 141°
2026-04-29 12:54 -19.49107 -71.50895 35614 ft 473 kts 141°
2026-04-29 12:54 -19.51644 -71.48733 35349 ft 463 kts 141°
2026-04-29 12:55 -19.54125 -71.46617 35178 ft 451 kts 141°
2026-04-29 12:55 -19.58966 -71.42488 35054 ft 449 kts 141°
2026-04-29 12:56 -19.63889 -71.38288 35013 ft 459 kts 141°
2026-04-29 12:56 -19.68876 -71.34028 34999 ft 461 kts 141°
2026-04-29 12:57 -19.73875 -71.29754 34997 ft 461 kts 141°
2026-04-29 12:57 -19.78869 -71.25481 34996 ft 461 kts 141°
2026-04-29 12:58 -19.83858 -71.21209 35001 ft 460 kts 141°
2026-04-29 12:58 -19.88836 -71.16943 34997 ft 459 kts 141°
2026-04-29 12:59 -19.93799 -71.12686 34997 ft 458 kts 141°
2026-04-29 12:59 -19.98751 -71.08434 34998 ft 457 kts 141°
2026-04-29 13:00 -20.03693 -71.04188 35001 ft 456 kts 141°
2026-04-29 13:00 -20.08624 -70.99948 35002 ft 456 kts 141°
2026-04-29 13:01 -20.13550 -70.95708 35005 ft 455 kts 141°
2026-04-29 13:01 -20.18473 -70.91465 34048 ft 456 kts 146°
2026-04-29 13:01 -20.20936 -70.89342 34284 ft 455 kts 146°
2026-04-29 13:02 -20.23396 -70.87221 34506 ft 455 kts 146°
2026-04-29 13:02 -20.25821 -70.85130 34719 ft 455 kts 146°
2026-04-29 13:02 -20.28283 -70.83006 34866 ft 457 kts 146°
2026-04-29 13:03 -20.33258 -70.78712 35004 ft 464 kts 146°
2026-04-29 13:03 -20.38326 -70.74333 35053 ft 474 kts 146°
2026-04-29 13:04 -20.43510 -70.69846 35058 ft 485 kts 146°
2026-04-29 13:04 -20.48795 -70.65264 35057 ft 495 kts 145°
2026-04-29 13:05 -20.54181 -70.60587 35058 ft 504 kts 145°
2026-04-29 13:05 -20.59638 -70.55843 35039 ft 507 kts 145°
2026-04-29 13:06 -20.65112 -70.51084 35035 ft 507 kts 145°
2026-04-29 13:06 -20.70582 -70.46329 35042 ft 507 kts 145°
2026-04-29 13:07 -20.76048 -70.41572 35042 ft 506 kts 145°
2026-04-29 13:07 -20.81500 -70.36821 35046 ft 505 kts 145°
2026-04-29 13:08 -20.86941 -70.32074 35047 ft 504 kts 145°
2026-04-29 13:08 -20.92363 -70.27340 35045 ft 503 kts 145°
2026-04-29 13:09 -20.98092 -70.23244 35051 ft 487 kts 164°
2026-04-29 13:09 -21.04524 -70.21663 35042 ft 465 kts 186°
2026-04-29 13:10 -21.10955 -70.21738 35051 ft 462 kts 188°
2026-04-29 13:10 -21.16957 -70.21832 35051 ft 462 kts 188°
2026-04-29 13:11 -21.23342 -70.21882 35036 ft 459 kts 187°
2026-04-29 13:11 -21.29703 -70.21902 35045 ft 456 kts 187°
2026-04-29 13:12 -21.36063 -70.21923 34478 ft 460 kts 187°
2026-04-29 13:12 -21.38223 -70.21931 34132 ft 459 kts 187°
2026-04-29 13:12 -21.41414 -70.21941 33453 ft 459 kts 186°
2026-04-29 13:12 -21.44603 -70.21951 32789 ft 459 kts 186°
2026-04-29 13:13 -21.47797 -70.21962 32126 ft 459 kts 185°
2026-04-29 13:13 -21.50987 -70.21972 31457 ft 459 kts 185°
2026-04-29 13:13 -21.54186 -70.21983 30778 ft 459 kts 185°
2026-04-29 13:13 -21.57383 -70.21994 30092 ft 460 kts 184°
2026-04-29 13:14 -21.60569 -70.22004 29520 ft 456 kts 184°
2026-04-29 13:14 -21.63722 -70.22013 28969 ft 451 kts 184°
2026-04-29 13:14 -21.66840 -70.22022 28445 ft 445 kts 184°
2026-04-29 13:14 -21.69926 -70.22032 27941 ft 441 kts 184°
2026-04-29 13:15 -21.72978 -70.22042 27420 ft 437 kts 183°
2026-04-29 13:15 -21.76003 -70.22053 26908 ft 433 kts 183°
2026-04-29 13:15 -21.78963 -70.22064 26416 ft 430 kts 182°
2026-04-29 13:15 -21.81939 -70.22074 25923 ft 426 kts 182°
2026-04-29 13:16 -21.84935 -70.22085 25421 ft 423 kts 182°
2026-04-29 13:16 -21.87833 -70.22095 24941 ft 421 kts 182°
2026-04-29 13:16 -21.90750 -70.22185 24444 ft 418 kts 186°
2026-04-29 13:16 -21.93632 -70.22538 23976 ft 415 kts 189°
2026-04-29 13:17 -21.96481 -70.23014 23441 ft 414 kts 190°
2026-04-29 13:17 -21.99319 -70.23525 22887 ft 412 kts 190°
2026-04-29 13:17 -22.02137 -70.24027 22369 ft 409 kts 190°
2026-04-29 13:17 -22.04939 -70.24510 21870 ft 406 kts 189°
2026-04-29 13:18 -22.07722 -70.24973 21380 ft 404 kts 189°
2026-04-29 13:18 -22.10488 -70.25421 20898 ft 401 kts 189°
2026-04-29 13:18 -22.13241 -70.25860 20412 ft 399 kts 188°
2026-04-29 13:18 -22.15977 -70.26293 19922 ft 397 kts 188°
2026-04-29 13:19 -22.18704 -70.26722 19436 ft 395 kts 188°
2026-04-29 13:19 -22.21421 -70.27150 18948 ft 394 kts 188°
2026-04-29 13:19 -22.24128 -70.27576 18461 ft 393 kts 188°
2026-04-29 13:19 -22.26831 -70.28001 17936 ft 392 kts 188°
2026-04-29 13:20 -22.29523 -70.28426 17430 ft 389 kts 188°
2026-04-29 13:20 -22.32191 -70.28846 16953 ft 386 kts 188°
2026-04-29 13:20 -22.34838 -70.29264 16480 ft 383 kts 188°
2026-04-29 13:20 -22.37437 -70.29674 16020 ft 381 kts 188°
2026-04-29 13:21 -22.40051 -70.30087 15560 ft 378 kts 188°
2026-04-29 13:21 -22.42643 -70.30497 15103 ft 376 kts 188°
2026-04-29 13:21 -22.45224 -70.30905 14641 ft 374 kts 188°
2026-04-29 13:21 -22.47789 -70.31311 14181 ft 372 kts 188°
2026-04-29 13:22 -22.50345 -70.31715 13699 ft 370 kts 188°
2026-04-29 13:22 -22.52882 -70.32117 13216 ft 368 kts 188°
2026-04-29 13:22 -22.55406 -70.32516 12735 ft 365 kts 188°
2026-04-29 13:22 -22.57911 -70.32913 12271 ft 363 kts 188°
2026-04-29 13:23 -22.60398 -70.33307 11884 ft 358 kts 188°
2026-04-29 13:23 -22.62827 -70.33692 11739 ft 345 kts 188°
2026-04-29 13:23 -22.65141 -70.34059 11572 ft 327 kts 188°
2026-04-29 13:23 -22.67335 -70.34407 11423 ft 311 kts 188°
2026-04-29 13:24 -22.69419 -70.34738 11293 ft 296 kts 188°
2026-04-29 13:24 -22.71449 -70.35060 11193 ft 294 kts 188°
2026-04-29 13:24 -22.73467 -70.35381 11081 ft 293 kts 188°
2026-04-29 13:24 -22.75476 -70.35700 10870 ft 291 kts 188°
2026-04-29 13:25 -22.77481 -70.36019 10587 ft 291 kts 188°
2026-04-29 13:25 -22.81473 -70.36653 9993 ft 290 kts 188°
2026-04-29 13:25 -22.83470 -70.36971 9669 ft 290 kts 188°
2026-04-29 13:26 -22.85465 -70.37288 9365 ft 289 kts 188°
2026-04-29 13:26 -22.87452 -70.37604 9049 ft 288 kts 188°
2026-04-29 13:26 -22.89431 -70.37905 8769 ft 287 kts 186°
2026-04-29 13:26 -22.91414 -70.38144 8460 ft 286 kts 185°
2026-04-29 13:27 -22.93392 -70.38365 8167 ft 285 kts 185°
2026-04-29 13:27 -22.95351 -70.38584 7862 ft 280 kts 185°
2026-04-29 13:27 -22.97270 -70.38802 7574 ft 274 kts 185°
2026-04-29 13:27 -22.99152 -70.39019 7297 ft 269 kts 185°
2026-04-29 13:28 -23.00999 -70.39233 7028 ft 266 kts 185°
2026-04-29 13:28 -23.02816 -70.39445 6774 ft 266 kts 185°
2026-04-29 13:28 -23.04655 -70.39660 6493 ft 266 kts 185°
2026-04-29 13:28 -23.06495 -70.39875 6195 ft 267 kts 185°
2026-04-29 13:29 -23.08338 -70.40100 5910 ft 266 kts 185°
2026-04-29 13:29 -23.10177 -70.40333 5609 ft 259 kts 185°
2026-04-29 13:29 -23.11949 -70.40548 5334 ft 253 kts 185°
2026-04-29 13:29 -23.13655 -70.40753 5075 ft 247 kts 185°
2026-04-29 13:30 -23.15338 -70.40954 4832 ft 240 kts 185°
2026-04-29 13:30 -23.16978 -70.41152 4560 ft 234 kts 185°
2026-04-29 13:30 -23.18577 -70.41346 4317 ft 227 kts 185°
2026-04-29 13:30 -23.20120 -70.41534 4104 ft 219 kts 185°
2026-04-29 13:31 -23.21602 -70.41715 3945 ft 209 kts 185°
2026-04-29 13:31 -23.23021 -70.41888 3841 ft 202 kts 185°
2026-04-29 13:31 -23.24412 -70.42057 3781 ft 200 kts 185°
2026-04-29 13:31 -23.25796 -70.42226 3700 ft 201 kts 185°
2026-04-29 13:32 -23.27190 -70.42396 3628 ft 202 kts 185°
2026-04-29 13:32 -23.28593 -70.42567 3494 ft 203 kts 186°
2026-04-29 13:32 -23.29979 -70.42736 3278 ft 198 kts 186°
2026-04-29 13:32 -23.31323 -70.42900 3059 ft 190 kts 186°
2026-04-29 13:33 -23.32607 -70.43057 2802 ft 182 kts 186°
2026-04-29 13:33 -23.33838 -70.43207 2569 ft 175 kts 186°
2026-04-29 13:33 -23.35018 -70.43351 2334 ft 165 kts 187°
2026-04-29 13:33 -23.36138 -70.43488 2069 ft 158 kts 187°
2026-04-29 13:34 -23.37234 -70.43622 1840 ft 160 kts 187°
2026-04-29 13:34 -23.38349 -70.43758 1588 ft 163 kts 187°
2026-04-29 13:34 -23.39474 -70.43899 1363 ft 162 kts 188°
2026-04-29 13:34 -23.40595 -70.44054 1119 ft 163 kts 187°
2026-04-29 13:35 -23.41717 -70.44184 880 ft 161 kts 186°
2026-04-29 13:35 -23.42820 -70.44310 613 ft 158 kts 187°
2026-04-29 13:35 -23.43893 -70.44442 435 ft 149 kts 186°
2026-04-29 13:35 -23.44694 -70.44537 393 ft 62 kts 186°
2026-04-29 13:36 -23.44935 -70.44521 386 ft 24 kts 159°
2026-04-29 13:36 -23.45082 -70.44443 381 ft 18 kts 121°
2026-04-29 13:36 -23.45021 -70.44383 384 ft 14 kts
2026-04-29 13:36 -23.44930 -70.44372 388 ft 13 kts
2026-04-29 13:37 -23.44841 -70.44361 392 ft 13 kts
2026-04-29 13:37 -23.44754 -70.44351 396 ft 12 kts
2026-04-29 13:37 -23.44690 -70.44320 399 ft 10 kts 84°
2026-04-29 13:37 -23.44753 -70.44283 397 ft 14 kts 165°
2026-04-29 13:38 -23.44868 -70.44255 392 ft 16 kts 182°
2026-04-29 13:38 -23.44950 -70.44262 388 ft 11 kts 162°
2026-04-29 13:38 -23.44972 -70.44187 387 ft 10 kts 97°